Torna al catalogo

GJZ 02

AttivoScienzaLEO
NORAD 62291·PAYLOAD·🇨🇳 China

Lanciato Dec 12, 2024 da Jiuquan Satellite Launch Center

Loading…

Prossimi Passaggi (prossime 24 ore)

TLE

AggiornatoSource: Space-Track

Epoca: Sep 14, 2026, 20:16 UTC

1 62291U 24238B   26257.84480464 -.00000049  00000-0  72993-4 0  9997
2 62291  59.9203 339.4377 0007119  87.7057 272.4765 13.75213558 88614

Traccia GJZ 02 in tempo reale con AllMySat

Download on the App Store